Location: Rounton
(54.4000°N, 1.3500°W)
Time: 08:40:06
(UTC+00:00)

Vanguard 1 Rocket - Pass Details

Date: 04 December 2021
Orbit: 651 x 4224 km, 34.3° (Epoch: 19 January)

Event Time Altitude Azimuth Distance (km) Brightness Sun altitude
Rises 01:20:32 0° 195° (SSW) 4,474 - -54.1°
Reaches altitude 10° 01:24:21 10° 176° (S) 3,992 - -53.8°
Maximum altitude 01:31:15 19° 137° (SE) 4,181 - -53.2°
Exits shadow 01:33:16 18° 128° (SE) 4,452 10.8 -53.0°
Drops below altitude 10° 01:40:59 10° 102° (ESE) 5,925 11.7 -52.2°
Sets 01:48:50 0° 89° (E) 7,624 12.5 -51.5°
